map of SBCO home
SBCO - Airport
Location
City:  Porto Alegre, Rio Grande do Sul, Brazil
Name:Canoas
ICAO:SBCO

Details
Type:Airport (Aerodrome, Airfield)
Use:Military
Latitude:2956'45"S (-29.945943)
Longitude:5108'40"W (-51.144366)
Datum:WGS 1984
Elevation:26 ft (8 m)
Variation:17.04W (WMM2015v2 magnetic declination)
-0.13 annual change
Runways:1
Longest:9025 × 145 ft (2751 × 44 m), paved

Time
Time Zone:UTC-3 (DST-2)
Local Time:

Weather
METAR:SBCO 041400Z 11009KT 9999 SCT030 25/17 Q1021
TAF:SBCO 040830Z 0412/0424 34005KT CAVOK TN21/0412Z TX27/0418Z
BECMG 0412/0414 12008KT 9999 FEW035
BECMG 0421/0423 CAVOK
RMK PER

Related Locations
Nearby:
Farthest:KUM: 12332 mi / 19846 km
Yakushima [Yakushima Airport], Yakushima Island, Satsunan Islands, 46, JP

Find:

   beyond  
but within

Other Information
Maps:
NOTAMs:
Links:
Sources:

  
  • flag of Brazil
  • flag of Rio Grande do Sul
  • flag of Porto Alegre
  

Sectional Chart

Flight Planning
at skyvector.com

Satellite Image

Google Maps Satellite view

 

Copyright © 2004-2019 Karl L. Swartz. All rights reserved.
The Great Circle Mapper name and logo are trademarks of the Great Circle Mapper.
All other trademarks mentioned herein belong to their respective owners.
Please see credits for attibutions and further copyright information.

  Follow gcmap on Facebook Follow gcmap on Twitter GCmap on LinkedIn

hCard Microformat

Geo Microformat